Location: Beaurevoir
(49.9971°N, 3.3085°E)
Time: 02:01:10
(UTC+00:00)

USA 267 - Pass Details

Date: 23 May 2024
Orbit: 1100 x 1107 km, 123.0° (Epoch: 21 May)

Event Time Altitude Azimuth Distance (km) Brightness Sun altitude
Rises 00:15:57 0° 57° (ENE) 3,923 6.8 -19.0°
Reaches altitude 10° 00:18:26 10° 58° (ENE) 2,963 6.1 -18.9°
Maximum altitude 00:25:00 85° 147° (SSE) 1,111 3.2 -18.8°
Enters shadow 00:30:21 17° 236° (SW) 2,499 4.7 -18.6°
